When you browse on this site, cookies collect data to enhance your experience and personalize the content and advertising you see.
Visit our Privacy Policy to learn more. By continuing to use the site, you agree to this use of cookies and data.
  • In Hungary
  • List of Countries
  • For 7 days
  • Water Temperature
  • Satellite Maps
  • Weather Map
  • News
  • Weather Widgets
  • user-avatar
    Login

    Hourly Weather Novotoshkurovo

    Today, 20 November, Tuesday

    Time Temperature Precipitation Wind Pressure Humidity
    00:00 -1°C° 0.1 mm 1 mps 750 mmHg 97%
    01:00 -1°C° 0.1 mm 1 mps 750 mmHg 96%
    02:00 -1°C° 0.1 mm 1 mps 749 mmHg 96%
    03:00 -1°C° 0.1 mm 1 mps 749 mmHg 96%
    04:00 -1°C° 0 mm 1 mps 749 mmHg 97%
    05:00 -1°C° 0.2 mm 1 mps 749 mmHg 97%
    06:00 -1°C° 0.2 mm 1 mps 749 mmHg 97%
    07:00 -1°C° 0.2 mm 1 mps 749 mmHg 97%
    08:00 -1°C° 0.1 mm 1 mps 749 mmHg 96%
    09:00 -1°C° 0.1 mm 1 mps 749 mmHg 95%
    10:00 -1°C° 0 mm 1 mps 748 mmHg 94%
    11:00 0°C° 0 mm 1 mps 748 mmHg 93%
    12:00 0°C° 0 mm 1 mps 748 mmHg 92%
    13:00 0°C° 0 mm 1 mps 748 mmHg 91%
    14:00 0°C° 0 mm 1 mps 747 mmHg 92%
    15:00 0°C° 0 mm 1 mps 747 mmHg 93%
    16:00 -1°C° 0 mm 1 mps 747 mmHg 95%
    17:00 -1°C° 0 mm 1 mps 746 mmHg 95%
    18:00 -3°C° 0 mm 2 mps 746 mmHg 95%
    19:00 -3°C° 0 mm 2 mps 746 mmHg 96%
    20:00 -3°C° 0 mm 2 mps 745 mmHg 95%
    21:00 -5°C° 0 mm 3 mps 745 mmHg 95%
    22:00 -5°C° 0 mm 3 mps 744 mmHg 94%
    23:00 -5°C° 0 mm 3 mps 744 mmHg 92%

    Tomorrow, 21 November, Wednesday

    Time Temperature Precipitation Wind Pressure Humidity
    00:00 -5°C° 0 mm 4 mps 743 mmHg 91%
    01:00 -5°C° 0 mm 4 mps 743 mmHg 89%
    02:00 -5°C° 0 mm 4 mps 742 mmHg 88%
    03:00 -6°C° 0 mm 5 mps 742 mmHg 88%
    04:00 -7°C° 0 mm 5 mps 741 mmHg 87%
    05:00 -7°C° 0.1 mm 5 mps 740 mmHg 87%
    06:00 -8°C° 0.1 mm 6 mps 740 mmHg 87%
    07:00 -8°C° 0.1 mm 6 mps 739 mmHg 87%
    08:00 -8°C° 0.3 mm 6 mps 738 mmHg 88%
    09:00 -8°C° 0.3 mm 6 mps 738 mmHg 89%
    10:00 -8°C° 0.3 mm 6 mps 737 mmHg 90%
    11:00 -8°C° 0.5 mm 6 mps 736 mmHg 90%
    12:00 -8°C° 0.5 mm 6 mps 736 mmHg 90%
    13:00 -8°C° 0.5 mm 6 mps 735 mmHg 90%
    14:00 -7°C° 0.3 mm 5 mps 734 mmHg 91%
    15:00 -7°C° 0.3 mm 5 mps 734 mmHg 91%
    16:00 -7°C° 0.3 mm 5 mps 733 mmHg 91%
    17:00 -6°C° 0.3 mm 5 mps 733 mmHg 91%
    18:00 -6°C° 0.3 mm 5 mps 733 mmHg 90%
    19:00 -6°C° 0.3 mm 5 mps 733 mmHg 89%
    20:00 -7°C° 0.1 mm 5 mps 733 mmHg 88%
    21:00 -8°C° 0.1 mm 5 mps 733 mmHg 88%
    22:00 -10°C° 0.1 mm 5 mps 733 mmHg 87%
    23:00 -10°C° 0.1 mm 5 mps 733 mmHg 87%

    Day after tomorrow, 22 November, Thursday

    Time Temperature Precipitation Wind Pressure Humidity
    00:00 -10°C° 0.1 mm 5 mps 733 mmHg 87%
    01:00 -9°C° 0.1 mm 6 mps 733 mmHg 87%
    02:00 -10°C° 0.1 mm 5 mps 733 mmHg 87%
    03:00 -10°C° 0.1 mm 5 mps 733 mmHg 87%
    04:00 -11°C° 0.1 mm 5 mps 733 mmHg 87%
    05:00 -11°C° 0.1 mm 5 mps 733 mmHg 88%
    06:00 -12°C° 0.1 mm 5 mps 733 mmHg 89%
    07:00 -12°C° 0.1 mm 5 mps 733 mmHg 90%
    08:00 -12°C° 0.1 mm 5 mps 734 mmHg 89%
    09:00 -12°C° 0.1 mm 5 mps 734 mmHg 87%
    10:00 -12°C° 0.1 mm 5 mps 734 mmHg 86%
    11:00 -12°C° 0 mm 5 mps 734 mmHg 85%
    12:00 -11°C° 0 mm 4 mps 734 mmHg 84%
    13:00 -11°C° 0 mm 4 mps 734 mmHg 84%
    14:00 -10°C° 0 mm 3 mps 734 mmHg 84%
    15:00 -12°C° 0 mm 3 mps 734 mmHg 85%
    16:00 -12°C° 0 mm 3 mps 734 mmHg 86%
    17:00 -12°C° 0 mm 2 mps 734 mmHg 88%
    18:00 -12°C° 0 mm 2 mps 734 mmHg 91%
    19:00 -13°C° 0 mm 2 mps 734 mmHg 93%
    20:00 -13°C° 0 mm 2 mps 733 mmHg 93%
    21:00 -13°C° 0 mm 3 mps 733 mmHg 93%
    22:00 -13°C° 0 mm 3 mps 732 mmHg 93%
    23:00 -12°C° 0.3 mm 4 mps 731 mmHg 92%

    23 November, Friday

    Time Temperature Precipitation Wind Pressure Humidity
    00:00 -11°C° 0.3 mm 4 mps 731 mmHg 92%
    01:00 -11°C° 0.3 mm 5 mps 730 mmHg 92%
    02:00 -11°C° 0.5 mm 5 mps 730 mmHg 93%
    03:00 -10°C° 0.5 mm 5 mps 729 mmHg 93%
    04:00 -10°C° 0.5 mm 5 mps 729 mmHg 93%
    05:00 -10°C° 0.7 mm 5 mps 729 mmHg 94%
    06:00 -9°C° 0.7 mm 4 mps 729 mmHg 94%
    07:00 -9°C° 0.7 mm 4 mps 729 mmHg 94%
    08:00 -10°C° 0.3 mm 5 mps 730 mmHg 93%
    09:00 -11°C° 0.3 mm 5 mps 730 mmHg 92%
    10:00 -12°C° 0.3 mm 5 mps 731 mmHg 91%
    11:00 -12°C° 0.1 mm 5 mps 731 mmHg 89%
    12:00 -12°C° 0.1 mm 5 mps 732 mmHg 88%
    13:00 -13°C° 0.1 mm 5 mps 732 mmHg 86%
    14:00 -14°C° 0 mm 5 mps 733 mmHg 85%
    15:00 -14°C° 0 mm 5 mps 734 mmHg 84%
    16:00 -15°C° 0 mm 4 mps 735 mmHg 83%
    17:00 -16°C° 0 mm 4 mps 735 mmHg 84%
    18:00 -17°C° 0 mm 4 mps 736 mmHg 84%
    19:00 -18°C° 0 mm 4 mps 737 mmHg 85%
    20:00 -18°C° 0 mm 3 mps 737 mmHg 87%
    21:00 -18°C° 0 mm 3 mps 738 mmHg 89%
    22:00 -18°C° 0 mm 2 mps 738 mmHg 91%
    23:00 -18°C° 0 mm 2 mps 738 mmHg 93%

    24 November, Saturday

    Time Temperature Precipitation Wind Pressure Humidity
    00:00 -18°C° 0 mm 2 mps 739 mmHg 95%
    01:00 -18°C° 0 mm 2 mps 739 mmHg 97%
    02:00 -17°C° 0 mm 2 mps 739 mmHg 97%
    03:00 -17°C° 0 mm 3 mps 739 mmHg 97%
    04:00 -16°C° 0 mm 3 mps 739 mmHg 96%
    05:00 -15°C° 0.1 mm 3 mps 739 mmHg 95%
    06:00 -15°C° 0.1 mm 4 mps 739 mmHg 95%
    07:00 -14°C° 0.1 mm 4 mps 739 mmHg 94%
    08:00 -12°C° 0.1 mm 4 mps 739 mmHg 93%
    09:00 -12°C° 0.1 mm 5 mps 739 mmHg 92%
    10:00 -11°C° 0.1 mm 5 mps 739 mmHg 91%
    11:00 -11°C° 0.1 mm 5 mps 739 mmHg 90%
    12:00 -10°C° 0.1 mm 5 mps 740 mmHg 89%
    13:00 -10°C° 0.1 mm 5 mps 740 mmHg 88%
    14:00 -10°C° 0.1 mm 5 mps 740 mmHg 90%
    15:00 -10°C° 0.1 mm 5 mps 740 mmHg 91%
    16:00 -10°C° 0.1 mm 5 mps 740 mmHg 93%
    17:00 -10°C° 0.4 mm 5 mps 740 mmHg 93%
    18:00 -9°C° 0.4 mm 6 mps 740 mmHg 93%
    19:00 -8°C° 0.4 mm 6 mps 740 mmHg 92%
    20:00 -8°C° 0.2 mm 6 mps 740 mmHg 91%
    21:00 -9°C° 0.2 mm 6 mps 740 mmHg 90%
    22:00 -9°C° 0.2 mm 7 mps 739 mmHg 89%
    23:00 -9°C° 0.1 mm 6 mps 740 mmHg 90%

    25 November, Sunday

    Time Temperature Precipitation Wind Pressure Humidity
    00:00 -9°C° 0.1 mm 6 mps 740 mmHg 90%
    01:00 -9°C° 0.1 mm 6 mps 740 mmHg 91%
    02:00 -9°C° 0.1 mm 6 mps 740 mmHg 91%
    03:00 -9°C° 0.1 mm 6 mps 740 mmHg 91%
    04:00 -9°C° 0.1 mm 6 mps 740 mmHg 91%
    05:00 -8°C° 0.1 mm 6 mps 740 mmHg 90%
    06:00 -8°C° 0.1 mm 6 mps 740 mmHg 90%
    07:00 -8°C° 0.1 mm 6 mps 740 mmHg 90%
    08:00 -8°C° 0.2 mm 7 mps 740 mmHg 90%
    09:00 -8°C° 0.2 mm 7 mps 740 mmHg 89%
    10:00 -8°C° 0.2 mm 7 mps 739 mmHg 89%
    11:00 -8°C° 0.2 mm 7 mps 739 mmHg 89%
    12:00 -7°C° 0.2 mm 7 mps 739 mmHg 89%
    13:00 -7°C° 0.2 mm 7 mps 739 mmHg 88%
    14:00 -7°C° 0.3 mm 7 mps 739 mmHg 89%
    15:00 -7°C° 0.3 mm 7 mps 739 mmHg 90%
    16:00 -6°C° 0.3 mm 6 mps 740 mmHg 90%
    17:00 -6°C° 0.1 mm 6 mps 740 mmHg 90%
    18:00 -6°C° 0.1 mm 6 mps 741 mmHg 91%
    19:00 -7°C° 0.1 mm 5 mps 741 mmHg 91%
    20:00 -7°C° 0.1 mm 5 mps 742 mmHg 91%
    21:00 -7°C° 0.1 mm 4 mps 742 mmHg 92%
    22:00 -8°C° 0.1 mm 4 mps 743 mmHg 93%
    23:00 -8°C° 0 mm 4 mps 743 mmHg 94%
    Show more